This is the latest recevied weather packets stored in our database for station/object OE6JUE. If no packets are shown the sender has not sent any weather packets the latest 10 day(s).
| Time | Temp. | Humidity | Pressure | Rain* | Wind** | Luminosity | Snow |
|---|---|---|---|---|---|---|---|
| 1777609012 | 3.89° C | 60% | 1028.4 hPa | 0 mm | - | - | - |
| 1777608711 | 3.33° C | 60% | 1028.4 hPa | 0 mm | - | - | - |
| 1777608412 | 2.78° C | 60% | 1028.6 hPa | 0 mm | - | - | - |
| 1777608111 | 2.78° C | 60% | 1028.4 hPa | - | - | - | - |
| 1777607811 | 2.78° C | 60% | 1028.4 hPa | 0 mm | - | - | - |
| 1777607511 | 2.78° C | 60% | 1028.5 hPa | 0 mm | - | - | - |
| 1777607211 | 2.78° C | 60% | 1028.4 hPa | 0 mm | - | - | - |
| 1777606912 | 2.78° C | 60% | 1028.4 hPa | 0 mm | - | - | - |
| 1777606611 | 2.22° C | 61% | 1028.5 hPa | 0 mm | - | - | - |
| 1777606312 | 2.22° C | 61% | 1028.5 hPa | 0 mm | - | - | - |
| 1777606011 | 2.78° C | 61% | 1028.5 hPa | 0 mm | - | - | - |
| 1777605711 | 2.22° C | 62% | 1028.5 hPa | 0 mm | - | - | - |
| 1777605411 | 2.22° C | 62% | 1028.7 hPa | 0 mm | - | - | - |
| 1777605111 | 2.22° C | 61% | 1028.6 hPa | 0 mm | - | - | - |
| 1777604811 | 2.22° C | 61% | 1028.6 hPa | 0 mm | - | - | - |
| 1777604511 | 2.22° C | 61% | 1028.5 hPa | - | - | - | - |
| 1777604211 | 2.22° C | 62% | 1028.6 hPa | 0 mm | - | - | - |
| 1777603911 | 2.22° C | 63% | 1028.5 hPa | 0 mm | - | - | - |
| 1777603611 | 2.22° C | 63% | 1028.5 hPa | 0 mm | - | - | - |
| 1777603311 | 1.67° C | 64% | 1028.5 hPa | 0 mm | - | - | - |
| 1777603011 | 1.67° C | 64% | 1028.5 hPa | 0 mm | - | - | - |
| 1777602711 | 1.67° C | 64% | 1028.7 hPa | 0 mm | - | - | - |
| 1777602411 | 1.67° C | 64% | 1028.7 hPa | 0 mm | - | - | - |
| 1777602111 | 1.11° C | 64% | 1028.6 hPa | 0 mm | - | - | - |
| 1777601811 | 1.67° C | 64% | 1028.7 hPa | 0 mm | - | - | - |
* Rain latest hour (hover to see other rain measurements)
** Current wind speed in m/s (hover to see current wind gust speed)